SCP
0 0 0 0 0 0 0 0 -0 -0 -0 -0 -0 0 0 0 -0 0 0 -0 0 -0
0 0 0 0 0 0 0 -0 -0 -0 -0 -0 -0 0 0 0 0 0 0 0 0 0
0 0 0 0 0 0 0 0 -0 0 0 -0 -0 0 0 -0 -0 0 0 0 0 0
0 0 0 0 0 -0 -0 -0 -0 -0 0 -0 -0 -0 -0 -0 0 0 -0 0 -0 0
0 0 0 0 0 0 -0 -0 -0 -0 0 0 -0 -0 -0 -0 -0 0 0 -0 0 0
0 -0 0 0 0 0 0 -0 0 -0 0 0 0 -0 -0 -0 -0 0 0 0 0 0
-0 -0 -0 0 0 0 0 0 0 0 0 0 0 0 0 0 -0 0 -0 0 -0 -0
-0 -0 -0 -0 -0 0 0 -0 0 0 0 0 0 0 0 0 0 0 0 0 -0 0
-0 -0 0 -0 -0 0 0 -0 0 0 0 0 0 -0 0 0 0 0 0 -0 -0 -0
-0 -0 0 0 -0 0 0 -0 0 0 0 0 0 0 0 0 0 0 0 -0 0 -0
-0 -0 0 0 0 0 0 -0 0 0 0 0 0 0 0 0 0 0 0 0 0 0
-0 -0 0 0 0 0 0 0 -0 0 0 0 0 0 0 0 -0 0 0 0 0 -0
-0 -0 0 0 0 0 0 0 0 -0 -0 0 -0 -0 -0 0 0 0 0 0 0 -0
-0 -0 0 0 0 0 0 0 0 0 -0 -0 0 0 -0 0 0 0 0 0 0 0
Wind_Speed_500mb
12 6 9 12 14 6 11 10 17 18 15 13 15 17 16 14 11 10 17 19 18 11
8 8 10 11 9 6 4 5 11 14 13 14 18 18 16 13 9 9 13 16 18 23
7 9 7 5 5 4 5 8 10 11 12 15 19 17 15 9 10 9 10 10 10 16
3 5 3 2 4 3 5 13 9 12 14 15 16 18 14 10 11 8 8 12 8 8
3 1 7 6 3 2 4 12 14 14 13 17 17 16 13 12 13 12 11 10 14 19
5 3 8 7 6 5 6 16 18 14 13 11 14 14 14 12 11 9 8 13 15 15
8 7 7 8 9 10 8 13 16 16 18 15 13 10 10 11 11 13 8 14 15 17
11 10 9 9 6 13 12 13 19 19 20 17 14 10 11 12 15 14 14 18 18 22
14 13 10 6 8 14 14 14 18 16 17 17 12 15 18 17 10 13 9 13 16 14
18 13 11 7 5 12 20 18 20 19 18 16 17 17 17 18 13 16 11 15 17 18
20 16 12 9 6 14 16 15 15 23 20 18 20 22 17 16 14 16 19 16 14 17
24 17 15 12 9 8 12 6 14 23 22 22 29 26 18 18 18 22 22 22 22 13
26 22 17 14 13 7 5 9 15 25 25 24 26 21 19 18 19 23 27 27 32 34
29 24 23 18 15 14 7 10 11 31 32 26 23 27 26 13 22 29 30 34 41 37
Wind_Direction_500mb
200 250 291 274 280 283 240 230 207 209 213 194 173 182 209 181 191 205 210 212 200 197
218 236 269 265 268 255 209 202 191 199 174 169 160 180 199 185 178 189 167 179 195 196
212 254 261 242 254 248 150 168 168 165 151 155 165 177 191 196 173 181 186 187 213 228
158 252 226 171 205 222 177 150 169 146 142 150 161 177 188 184 165 178 200 187 208 189
141 203 162 130 67 145 155 158 164 151 144 153 159 162 170 165 175 187 189 172 152 148
135 106 137 156 143 119 146 148 159 152 133 145 149 159 160 157 161 153 130 140 149 158
136 125 131 141 128 130 141 127 148 152 152 145 143 147 150 146 153 138 154 131 157 154
149 129 97 87 131 149 130 144 146 153 157 141 142 157 175 140 146 164 168 145 155 163
161 157 136 112 124 140 126 135 141 143 150 141 159 182 154 135 137 140 163 185 173 171
173 172 145 133 143 141 152 134 153 151 147 137 161 159 159 148 149 140 143 135 140 138
172 173 150 136 113 144 147 146 157 142 143 158 145 143 143 131 122 122 144 152 145 140
170 169 161 147 134 126 156 169 164 167 155 163 147 141 131 129 137 142 138 136 141 130
171 169 162 154 140 137 146 168 160 168 163 161 166 152 129 122 140 138 141 139 128 120
172 167 169 159 149 136 133 141 160 169 167 161 161 144 136 152 151 135 130 142 138 130
Wind_Speed_850mb
12 6 9 12 14 6 11 10 17 18 15 13 15 17 16 14 11 10 17 19 18 11
8 8 10 11 9 6 4 5 11 14 13 14 18 18 16 13 9 9 13 16 18 23
7 9 7 5 5 4 5 8 10 11 12 15 19 17 15 9 10 9 10 10 10 16
3 5 3 2 4 3 5 13 9 12 14 15 16 18 14 10 11 8 8 12 8 8
3 1 7 6 3 2 4 12 14 14 13 17 17 16 13 12 13 12 11 10 14 19
5 3 8 7 6 5 6 16 18 14 13 11 14 14 14 12 11 9 8 13 15 15
8 7 7 8 9 10 8 13 16 16 18 15 13 10 10 11 11 13 8 14 15 17
11 10 9 9 6 13 12 13 19 19 20 17 14 10 11 12 15 14 14 18 18 22
14 13 10 6 8 14 14 14 18 16 17 17 12 15 18 17 10 13 9 13 16 14
18 13 11 7 5 12 20 18 20 19 18 16 17 17 17 18 13 16 11 15 17 18
20 16 12 9 6 14 16 15 15 23 20 18 20 22 17 16 14 16 19 16 14 17
24 17 15 12 9 8 12 6 14 23 22 22 29 26 18 18 18 22 22 22 22 13
26 22 17 14 13 7 5 9 15 25 25 24 26 21 19 18 19 23 27 27 32 34
29 24 23 18 15 14 7 10 11 31 32 26 23 27 26 13 22 29 30 34 41 37
Wind_Direction_850mb
200 250 291 274 280 283 240 230 207 209 213 194 173 182 209 181 191 205 210 212 200 197
218 236 269 265 268 255 209 202 191 199 174 169 160 180 199 185 178 189 167 179 195 196
212 254 261 242 254 248 150 168 168 165 151 155 165 177 191 196 173 181 186 187 213 228
158 252 226 171 205 222 177 150 169 146 142 150 161 177 188 184 165 178 200 187 208 189
141 203 162 130 67 145 155 158 164 151 144 153 159 162 170 165 175 187 189 172 152 148
135 106 137 156 143 119 146 148 159 152 133 145 149 159 160 157 161 153 130 140 149 158
136 125 131 141 128 130 141 127 148 152 152 145 143 147 150 146 153 138 154 131 157 154
149 129 97 87 131 149 130 144 146 153 157 141 142 157 175 140 146 164 168 145 155 163
161 157 136 112 124 140 126 135 141 143 150 141 159 182 154 135 137 140 163 185 173 171
173 172 145 133 143 141 152 134 153 151 147 137 161 159 159 148 149 140 143 135 140 138
172 173 150 136 113 144 147 146 157 142 143 158 145 143 143 131 122 122 144 152 145 140
170 169 161 147 134 126 156 169 164 167 155 163 147 141 131 129 137 142 138 136 141 130
171 169 162 154 140 137 146 168 160 168 163 161 166 152 129 122 140 138 141 139 128 120
172 167 169 159 149 136 133 141 160 169 167 161 161 144 136 152 151 135 130 142 138 130